Torna al catalogo

STARLINK-3257

AttivoComunicazioniVLEO
NORAD 50203·PAYLOAD·🇺🇸 United States

Lanciato Dec 18, 2021 da Vandenberg Space Force Base

Loading…

Prossimi Passaggi (prossime 24 ore)

TLE

AggiornatoSource: CelesTrak SupGP

Epoca: Sep 14, 2026, 20:07 UTC

1 50203C 21125AZ  26257.83868056 -.00032030  00000+0 -10301-2 0  2570
2 50203  53.1577  99.2081 0001344  85.8249 321.9796 15.31713565    12

Traccia STARLINK-3257 in tempo reale con AllMySat

Download on the App Store